Location: Unspecified
(0.0000°N, 0.0000°E)
Time: 13:23:58
(UTC+00:00)

Altair - All Passes

Search period start: 25 October 2014 00:00
Search period end: 04 November 2014 00:00
Orbit: 1501 x 1683 km, 47.2° (Epoch: 24 October)

Date Brightness Start Highest point End Pass type
(mag) Time Alt. Az. Time Alt. Az. Time Alt. Az.
25 Oct - 00:25:41 10° SW 00:34:59 89° SE 00:44:36 10° NE night (unlit)
25 Oct - 02:34:09 10° W 02:39:56 18° NW 02:45:51 10° N visible
25 Oct - 11:11:32 10° NNW 11:20:47 41° NE 11:29:45 10° ESE daylight
25 Oct - 13:16:05 10° WNW 13:25:25 45° SW 13:34:29 10° SSE daylight
25 Oct - 22:00:37 10° SSE 22:05:02 14° SE 22:09:28 10° ESE visible
26 Oct - 00:00:36 10° SW 00:09:52 81° SE 00:19:25 10° NE night (unlit)
26 Oct - 02:08:19 10° W 02:14:42 20° NW 02:21:16 10° N night (unlit)
26 Oct - 10:46:37 10° NNW 10:55:35 36° NE 11:04:19 10° ESE daylight
26 Oct - 12:50:42 10° WNW 13:00:16 51° SW 13:09:33 10° SSE daylight
26 Oct - 21:36:40 10° SSE 21:39:48 12° SE 21:42:56 10° ESE visible
26 Oct - 23:35:33 10° SSW 23:44:45 73° SE 23:54:13 10° NE night (unlit)
27 Oct - 01:42:36 10° W 01:49:29 23° NW 01:56:35 10° N night (unlit)
27 Oct - 10:21:43 10° N 10:30:23 32° NE 10:38:50 10° ESE daylight
27 Oct - 12:25:21 10° NW 12:35:06 57° SW 12:44:35 10° SSE daylight
27 Oct - 23:10:32 10° SSW 23:19:38 65° SE 23:28:58 10° NE night (unlit)
28 Oct - 01:16:58 10° W 01:24:17 26° NW 01:31:50 10° N night (unlit)
28 Oct - 09:56:52 10° N 10:05:10 29° NE 10:13:17 10° ESE daylight
28 Oct - 12:00:02 10° NW 12:09:57 63° SW 12:19:35 10° SSE daylight
28 Oct - 14:13:49 10° SW 14:15:12 10° SW 14:16:36 10° SW daylight
28 Oct - 22:45:32 10° SSW 22:54:31 58° SE 23:03:42 10° NE visible
29 Oct - 00:51:25 10° WSW 00:59:06 29° NW 01:07:02 10° N night (unlit)
29 Oct - 09:32:04 10° N 09:39:57 25° NE 09:47:40 10° E daylight
29 Oct - 11:34:46 10° NW 11:44:48 71° SW 11:54:33 10° SSE daylight
29 Oct - 13:46:16 10° WSW 13:49:55 12° SW 13:53:34 10° SSW daylight
29 Oct - 22:20:35 10° SSW 22:29:24 51° SE 22:38:24 10° NE visible
30 Oct - 00:25:56 10° WSW 00:33:56 33° NW 00:42:11 10° NNE night (unlit)
30 Oct - 09:07:20 10° N 09:14:43 23° NE 09:21:58 10° E daylight
30 Oct - 11:09:32 10° NW 11:19:38 78° SW 11:29:29 10° SE daylight
30 Oct - 13:19:44 10° WSW 13:24:40 15° SW 13:29:33 10° SSW daylight
30 Oct - 21:55:39 10° SSW 22:04:17 45° SE 22:13:03 10° ENE visible
31 Oct - 00:00:31 10° WSW 00:08:46 37° NW 00:17:17 10° NNE night (unlit)
31 Oct - 08:42:41 10° N 08:49:28 20° NE 08:56:09 10° E daylight
31 Oct - 10:44:19 10° NW 10:54:29 86° SW 11:04:23 10° SE daylight
31 Oct - 12:53:32 10° W 12:59:25 17° SW 13:05:14 10° S daylight
31 Oct - 21:30:45 10° SSW 21:39:10 40° SE 21:47:40 10° ENE visible
31 Oct - 23:35:08 10° WSW 23:43:37 42° NW 23:52:22 10° NNE night (unlit)
01 Nov - 08:18:07 10° N 08:24:12 17° NE 08:30:12 10° E daylight
01 Nov - 10:19:09 10° NW 10:29:19 85° NE 10:39:15 10° SE daylight
01 Nov - 12:27:32 10° W 12:34:11 20° SW 12:40:44 10° S daylight
01 Nov - 21:05:53 10° SSW 21:14:02 36° SE 21:22:14 10° ENE visible
01 Nov - 23:09:48 10° WSW 23:18:29 47° NW 23:27:25 10° NNE night (unlit)
02 Nov - 07:53:43 10° NNE 07:58:55 15° NE 08:04:05 10° ENE daylight
02 Nov - 09:54:00 10° NW 10:04:09 78° NE 10:14:05 10° SE daylight
02 Nov - 12:01:41 10° W 12:08:57 23° SW 12:16:08 10° S daylight
02 Nov - 20:41:04 10° S 20:48:53 31° SE 20:56:45 10° ENE visible
02 Nov - 22:44:31 10° SW 22:53:21 53° NW 23:02:26 10° NNE visible
03 Nov - 07:29:33 10° NNE 07:33:37 13° NE 07:37:40 10° ENE daylight
03 Nov - 09:28:54 10° NNW 09:38:59 70° NE 09:48:53 10° SE daylight
03 Nov - 11:35:56 10° W 11:43:44 26° SW 11:51:27 10° S daylight
03 Nov - 20:16:17 10° S 20:23:44 28° SE 20:31:13 10° ENE visible
03 Nov - 22:19:16 10° SW 22:28:14 59° NW 22:37:25 10° NNE visible
